Location: Newark
(27.9675°N, 86.8869°E)
Time: 20:03:15
(UTC+00:00)

SR - Pass Details

Date: 22 October 2019
Orbit: 574 x 882 km, 66.7° (Epoch: 17 November)

Event Time Altitude Azimuth Distance (km) Brightness Sun altitude
Rises 14:55:05 0° 199° (SSW) 2,925 - -44.3°
Reaches altitude 10° 14:57:16 10° 197° (SSW) 2,061 - -44.7°
Maximum altitude 15:01:56 76° 112° (ESE) 725 - -45.7°
Drops below altitude 10° 15:07:06 10° 28° (NNE) 2,273 - -46.9°
Sets 15:09:36 0° 26° (NNE) 3,253 - -47.4°
